TDS 1

Last updated on Fri Dec 29 2023 00:03:29 GMT+0000 (Coordinated Universal Time)

1 40076U 14037H 23361.71386025 .00008491 00000+0 86088-3 0 9993 2 40076 98.3333 269.2060 0007625 63.7692 296.4307 14.91146267512714
UTC large
Height (km)
Speed (km/s)
/
Latitude / Longitude
Inclination (degrees)
Orbital Period (minutes)
Azimuth
Elevation
Range (km)
Doppler Factor

Next 0 passes for location: London (51.5072 / 0.1276)

Sorry there are no passes over London.